TimeCET,TemperatureF,Dew PointF,Humidity,Sea Level PressureIn,VisibilityMPH,Wind Direction,Wind SpeedMPH,Gust SpeedMPH,PrecipitationIn,Events,Conditions,WindDirDegrees,DateUTC
12:00 AM,40,38,88,29.73,9,SSE,6.7,,,,,160,2014-01-13 23:00:00
12:25 AM,39.2,37.4,93,29.71,6.2,South,8.1,-,N/A,,Unknown,170,2014-01-13 23:25:00
12:55 AM,39.2,37.4,93,29.71,6.2,SSE,6.9,-,N/A,,Partly Cloudy,160,2014-01-13 23:55:00
1:00 AM,39,37,91,29.72,7,SSE,6.7,,,,Partly Cloudy,150,2014-01-14 00:00:00
1:25 AM,39.2,37.4,93,29.68,6.2,SSE,5.8,-,N/A,,Unknown,160,2014-01-14 00:25:00
1:55 AM,39.2,37.4,93,29.68,6.2,SSE,8.1,-,N/A,,Unknown,150,2014-01-14 00:55:00
2:00 AM,39,38,93,29.69,7,SSE,6.7,,,,Scattered Clouds,150,2014-01-14 01:00:00
2:25 AM,39.2,37.4,93,29.68,6.2,SSE,5.8,-,N/A,,Partly Cloudy,160,2014-01-14 01:25:00
2:55 AM,39.2,37.4,93,29.68,6.2,SSE,8.1,-,N/A,,Partly Cloudy,160,2014-01-14 01:55:00
3:00 AM,39,38,92,29.68,8,SSE,8.9,,,,Scattered Clouds,160,2014-01-14 02:00:00
3:25 AM,39.2,37.4,93,29.65,6.2,SSE,6.9,-,N/A,,Unknown,160,2014-01-14 02:25:00
3:55 AM,39.2,37.4,93,29.65,6.2,South,8.1,-,N/A,,Unknown,170,2014-01-14 02:55:00
4:00 AM,39,38,92,29.67,11,South,8.9,,,,Scattered Clouds,170,2014-01-14 03:00:00
4:25 AM,39.2,37.4,93,29.65,6.2,South,9.2,-,N/A,,Unknown,170,2014-01-14 03:25:00
4:55 AM,39.2,37.4,93,29.65,6.2,SSE,8.1,-,N/A,,Partly Cloudy,150,2014-01-14 03:55:00
5:00 AM,39,37,92,29.66,12,SSE,8.9,,,,Scattered Clouds,160,2014-01-14 04:00:00
5:25 AM,39.2,37.4,93,29.62,6.2,SSE,9.2,-,N/A,,Overcast,150,2014-01-14 04:25:00
5:55 AM,39.2,37.4,93,29.62,6.2,SE,8.1,-,N/A,,Partly Cloudy,140,2014-01-14 04:55:00
6:00 AM,39,37,90,29.64,15,SE,6.7,,,,Mostly Cloudy,140,2014-01-14 05:00:00
6:25 AM,39.2,37.4,93,29.62,6.2,SSE,8.1,-,N/A,,Mostly Cloudy,150,2014-01-14 05:25:00
6:55 AM,39.2,37.4,93,29.62,6.2,SSE,6.9,-,N/A,,Scattered Clouds,150,2014-01-14 05:55:00
7:00 AM,39,37,90,29.64,15,SE,6.7,,,,Partly Cloudy,140,2014-01-14 06:00:00
7:25 AM,39.2,37.4,93,29.62,6.2,SE,6.9,-,N/A,,Overcast,140,2014-01-14 06:25:00
7:55 AM,39.2,37.4,93,29.62,6.2,SE,8.1,-,N/A,,Mostly Cloudy,140,2014-01-14 06:55:00
8:00 AM,40,37,87,29.63,19,SE,6.7,,,,Overcast,140,2014-01-14 07:00:00
8:25 AM,39.2,37.4,93,29.62,6.2,SE,6.9,-,N/A,,Overcast,130,2014-01-14 07:25:00
8:55 AM,41.0,37.4,87,29.62,6.2,SE,6.9,-,N/A,,Overcast,130,2014-01-14 07:55:00
9:00 AM,40,38,88,29.64,22,ESE,6.7,,,,Overcast,120,2014-01-14 08:00:00
9:07 AM,41.0,37.4,87,29.62,6.2,SE,8.1,-,N/A,,Mostly Cloudy,130,2014-01-14 08:07:00
9:25 AM,41.0,37.4,87,29.62,6.2,SE,8.1,-,N/A,Rain,Drizzle,130,2014-01-14 08:25:00
9:55 AM,41.0,37.4,87,29.62,6.2,SE,8.1,-,N/A,,Drizzle,130,2014-01-14 08:55:00
10:00 AM,40,38,91,29.64,11,SE,6.7,,,Rain,Drizzle,130,2014-01-14 09:00:00
10:25 AM,41.0,39.2,93,29.62,6.2,SE,6.9,-,N/A,Rain,Heavy Drizzle,140,2014-01-14 09:25:00
10:39 AM,41.0,39.2,93,29.62,6.2,SE,6.9,-,N/A,Rain,Light Rain,130,2014-01-14 09:39:00
10:43 AM,41.0,39.2,93,29.62,6.2,SE,6.9,-,N/A,Rain,Light Rain,130,2014-01-14 09:43:00
10:55 AM,41.0,39.2,93,29.62,6.2,SE,6.9,-,N/A,Rain,Light Rain Showers,130,2014-01-14 09:55:00
11:00 AM,41,39,90,29.65,9,SE,6.7,,,Rain,Light Rain,130,2014-01-14 10:00:00
11:25 AM,41.0,39.2,93,29.62,6.2,SE,8.1,-,N/A,Rain,Light Rain,130,2014-01-14 10:25:00
11:55 AM,41.0,39.2,93,29.62,6.2,SE,6.9,-,N/A,,Mostly Cloudy,130,2014-01-14 10:55:00
12:00 PM,41,39,92,29.64,9,SE,8.9,,,Rain,Light Drizzle,130,2014-01-14 11:00:00
12:25 PM,42.8,39.2,87,29.62,6.2,SE,6.9,-,N/A,,Overcast,140,2014-01-14 11:25:00
12:55 PM,42.8,41.0,93,29.62,6.2,SE,8.1,-,N/A,,Overcast,140,2014-01-14 11:55:00
12:57 PM,42.8,41.0,93,29.62,6.2,SE,8.1,-,N/A,,Overcast,140,2014-01-14 11:57:00
1:00 PM,43,40,85,29.63,11,SE,6.7,,,Rain,Drizzle,140,2014-01-14 12:00:00
1:07 PM,42.8,41.0,93,29.62,6.2,SE,8.1,-,N/A,,Overcast,140,2014-01-14 12:07:00
1:11 PM,42.8,41.0,93,29.62,6.2,SSE,8.1,-,N/A,,Overcast,150,2014-01-14 12:11:00
1:25 PM,42.8,41.0,93,29.62,6.2,SE,8.1,-,N/A,,Overcast,140,2014-01-14 12:25:00
1:30 PM,42.8,41.0,93,29.62,6.2,SSE,6.9,-,N/A,,Overcast,150,2014-01-14 12:30:00
1:55 PM,42.8,41.0,93,29.62,6.2,SE,8.1,-,N/A,,Overcast,140,2014-01-14 12:55:00
2:00 PM,44,41,86,29.64,9,SSE,6.7,,,Rain,Light Rain Showers,150,2014-01-14 13:00:00
2:18 PM,44.6,41.0,87,29.62,6.2,SSE,6.9,-,N/A,Rain,Light Rain,160,2014-01-14 13:18:00
2:25 PM,44.6,41.0,87,29.62,6.2,South,6.9,-,N/A,Rain,Light Rain,170,2014-01-14 13:25:00
2:46 PM,44.6,41.0,87,29.62,6.2,South,9.2,-,N/A,Rain,Light Rain Showers,180,2014-01-14 13:46:00
2:50 PM,44.6,41.0,87,29.65,5.6,South,9.2,-,N/A,Rain,Light Rain,180,2014-01-14 13:50:00
2:55 PM,44.6,41.0,87,29.65,6.2,South,8.1,-,N/A,Rain,Light Rain,190,2014-01-14 13:55:00
3:00 PM,44,42,88,29.65,10,South,6.7,,,Rain,Drizzle,190,2014-01-14 14:00:00
3:06 PM,44.6,41.0,87,29.65,6.2,South,8.1,-,N/A,,Light Drizzle,180,2014-01-14 14:06:00
3:10 PM,44.6,41.0,87,29.65,6.2,South,8.1,-,N/A,Rain,Light Rain,180,2014-01-14 14:10:00
3:25 PM,44.6,41.0,87,29.65,6.2,South,8.1,-,N/A,Rain,Light Rain,180,2014-01-14 14:25:00
3:41 PM,44.6,42.8,93,29.65,6.2,South,5.8,-,N/A,,Overcast,170,2014-01-14 14:41:00
3:48 PM,44.6,42.8,93,29.65,6.2,South,5.8,-,N/A,,Overcast,170,2014-01-14 14:48:00
3:55 PM,44.6,42.8,93,29.65,6.2,South,5.8,-,N/A,,Overcast,180,2014-01-14 14:55:00
4:00 PM,44,42,90,29.68,9,South,6.7,,,Rain,Light Drizzle,180,2014-01-14 15:00:00
4:10 PM,44.6,42.8,93,29.65,6.2,South,5.8,-,N/A,,Overcast,170,2014-01-14 15:10:00
4:14 PM,44.6,42.8,93,29.65,6.2,South,5.8,-,N/A,,Overcast,170,2014-01-14 15:14:00
4:25 PM,44.6,41.0,87,29.68,6.2,SSE,5.8,-,N/A,,Drizzle,160,2014-01-14 15:25:00
4:32 PM,44.6,41.0,87,29.68,6.2,South,5.8,-,N/A,Rain,Light Rain,170,2014-01-14 15:32:00
4:55 PM,42.8,42.8,100,29.68,3.7,WSW,3.5,-,N/A,Rain,Rain Showers,250,2014-01-14 15:55:00
5:00 PM,43,42,94,29.70,6,SSW,4.5,,,Rain,Light Rain Showers,200,2014-01-14 16:00:00
5:08 PM,42.8,42.8,100,29.68,6.2,South,3.5,-,N/A,,Light Drizzle,190,2014-01-14 16:08:00
5:09 PM,42.8,42.8,100,29.68,6.2,South,3.5,-,N/A,,Light Drizzle,190,2014-01-14 16:09:00
5:25 PM,42.8,42.8,100,29.68,6.2,South,4.6,-,N/A,,Mostly Cloudy,180,2014-01-14 16:25:00
5:35 PM,42.8,41.0,93,29.68,6.2,SSW,4.6,-,N/A,Rain,Light Rain,200,2014-01-14 16:35:00
5:41 PM,42.8,41.0,93,29.68,6.2,SSW,3.5,-,N/A,,Drizzle,200,2014-01-14 16:41:00
5:46 PM,42.8,41.0,93,29.68,6.2,SSW,3.5,-,N/A,,Light Drizzle,200,2014-01-14 16:46:00
5:55 PM,42.8,41.0,93,29.68,6.2,SSW,3.5,-,N/A,,Drizzle,200,2014-01-14 16:55:00
5:59 PM,42.8,41.0,93,29.68,5.6,SSW,3.5,-,N/A,,Drizzle,200,2014-01-14 16:59:00
6:00 PM,42,41,97,29.71,6,SSW,4.5,,,Rain,Drizzle,200,2014-01-14 17:00:00
6:05 PM,42.8,41.0,93,29.68,6.2,SSW,3.5,-,N/A,,Overcast,200,2014-01-14 17:05:00
6:12 PM,42.8,41.0,93,29.71,5.0,SSW,3.5,-,N/A,Rain,Light Rain,210,2014-01-14 17:12:00
6:17 PM,42.8,41.0,93,29.71,-9999.0,SSW,3.5,-,N/A,Rain,Rain,200,2014-01-14 17:17:00
6:25 PM,42.8,41.0,93,29.71,6.2,South,3.5,-,N/A,,Overcast,190,2014-01-14 17:25:00
6:38 PM,42.8,41.0,93,29.71,6.2,SSW,4.6,-,N/A,,Overcast,200,2014-01-14 17:38:00
6:44 PM,42.8,41.0,93,29.71,6.2,South,5.8,-,N/A,,Overcast,190,2014-01-14 17:44:00
6:55 PM,42.8,41.0,93,29.71,6.2,SSW,4.6,-,N/A,,Overcast,200,2014-01-14 17:55:00
7:00 PM,42,41,97,29.73,6,South,4.5,,,Rain,Rain,190,2014-01-14 18:00:00
7:04 PM,42.8,41.0,93,29.71,5.6,South,5.8,-,N/A,,Overcast,190,2014-01-14 18:04:00
7:19 PM,42.8,41.0,93,29.71,4.3,SSW,3.5,-,N/A,,Mostly Cloudy,210,2014-01-14 18:19:00
7:25 PM,42.8,41.0,93,29.71,-9999.0,SW,4.6,-,N/A,,Drizzle,220,2014-01-14 18:25:00
7:38 PM,42.8,41.0,93,29.74,3.1,WSW,5.8,-,N/A,,Mostly Cloudy,250,2014-01-14 18:38:00
7:43 PM,42.8,41.0,93,29.74,-9999.0,West,6.9,-,N/A,,Mostly Cloudy,260,2014-01-14 18:43:00
7:55 PM,42.8,41.0,93,29.74,6.2,West,8.1,-,N/A,,Mostly Cloudy,260,2014-01-14 18:55:00
7:59 PM,42.8,41.0,93,29.74,6.2,West,8.1,-,N/A,,Mostly Cloudy,260,2014-01-14 18:59:00
8:00 PM,42,41,94,29.75,7,West,6.7,,,Rain,Drizzle,260,2014-01-14 19:00:00
8:03 PM,42.8,41.0,93,29.74,6.2,WSW,6.9,-,N/A,,Mostly Cloudy,250,2014-01-14 19:03:00
8:12 PM,42.8,39.2,87,29.74,6.2,West,8.1,-,N/A,,Mostly Cloudy,260,2014-01-14 19:12:00
8:25 PM,42.8,39.2,87,29.74,6.2,WSW,6.9,-,N/A,,Overcast,250,2014-01-14 19:25:00
8:31 PM,41.0,39.2,93,29.74,6.2,WSW,6.9,-,N/A,,Mostly Cloudy,250,2014-01-14 19:31:00
8:41 PM,41.0,39.2,93,29.74,6.2,West,6.9,-,N/A,,Overcast,260,2014-01-14 19:41:00
8:48 PM,41.0,39.2,93,29.74,6.2,WSW,6.9,-,N/A,,Overcast,250,2014-01-14 19:48:00
8:55 PM,41.0,39.2,93,29.74,6.2,West,5.8,-,N/A,,Overcast,260,2014-01-14 19:55:00
9:00 PM,41,38,86,29.77,14,WSW,4.5,,,Rain,Light Rain Showers,250,2014-01-14 20:00:00
9:15 PM,41.0,37.4,87,29.74,6.2,SW,4.6,-,N/A,,Mostly Cloudy,230,2014-01-14 20:15:00
9:19 PM,41.0,37.4,87,29.74,6.2,SW,4.6,-,N/A,,Mostly Cloudy,230,2014-01-14 20:19:00
9:25 PM,41.0,37.4,87,29.77,6.2,SW,4.6,-,N/A,,Mostly Cloudy,230,2014-01-14 20:25:00
9:55 PM,41.0,37.4,87,29.77,6.2,SW,5.8,-,N/A,,Mostly Cloudy,220,2014-01-14 20:55:00
10:00 PM,40,37,83,29.78,16,SW,4.5,,,Rain,Rain,220,2014-01-14 21:00:00
10:25 PM,41.0,37.4,87,29.77,6.2,WSW,6.9,-,N/A,,Overcast,240,2014-01-14 21:25:00
10:41 PM,41.0,37.4,87,29.77,6.2,SW,6.9,-,N/A,,Overcast,230,2014-01-14 21:41:00
10:55 PM,41.0,37.4,87,29.77,6.2,SW,5.8,-,N/A,,Overcast,230,2014-01-14 21:55:00
11:00 PM,41,38,84,29.79,10,SW,4.5,,,,Partly Cloudy,220,2014-01-14 22:00:00
11:25 PM,41.0,37.4,87,29.77,6.2,SW,5.8,-,N/A,,Overcast,230,2014-01-14 22:25:00
11:55 PM,41.0,37.4,87,29.77,6.2,SW,5.8,-,N/A,,Overcast,230,2014-01-14 22:55:00